Starlink 32426

operational
NORAD ID: 61681 Int'l Des: 2024-193 Owner: SPXS Country: US Constellation: starlink
LEOCIRCULAR

Starlink 32426について

説明を読み込み中...

リアルタイム位置

3D地球を読み込み中...

次回通過

高度履歴

Altitude vs Time

uPlot chart will show altitude changes over time

軌道要素

1 61681U 24193W 25352.70791603 .00000408 00000-0 25915-4 0 9999
2 61681 53.1606 107.4633 0001142 91.6796 268.4335 15.30192929 64120
Epoch: Dec 18, 2025 • Age: 13 hours

現在のステータス

高度 478.2 km
速度 7.63 km/s
衛星直下点 -10.27°S, 108.99°E
打ち上げ日 Oct 26, 2024
運用期間 1.1 years
タイプ internet

技術仕様

分類 Payload
質量 730.00 kg
乾燥質量 700.00 kg
総質量 730.00 kg
長さ 0.30 m
直径 4.10 m
スパン 29.00 m
形状 Box + pan
製造者 SPXS
バスタイプ Starlink V2M
フェーズステータス In Orbit
所有者/国 SPXS/US

大規模コンステレーション

Loading constellations...